Location: Rounton
(54.4000°N, 1.3500°W)
Time: 20:58:55
(UTC+01:00)

deb Delta 126 - Pass Details

Date: 09 July 2022
Orbit: 1120 x 1970 km, 101.5° (Epoch: 17 August)

Event Time Altitude Azimuth Distance (km) Brightness Sun altitude
Rises 22:15:07 0° 21° (NNE) 5,180 ? -4.6°
Reaches altitude 10° 22:18:07 10° 19° (NNE) 4,255 ? -4.9°
Maximum altitude 22:28:29 63° 303° (WNW) 2,156 ? -5.8°
Drops below altitude 10° 22:39:07 10° 227° (SW) 4,348 ? -6.7°
Sets 22:42:14 0° 224° (SW) 5,298 ? -7.0°
